Tracking 27122 objects as of 26-Mar-2023
HD Live streaming from Space Station
objects crossing your sky now

STARLINK-2659

Track STARLINK-2659 now!
10-day predictions
STARLINK-2659 is classified as:


NORAD ID: 48467
Int'l Code: 2021-040AR
Perigee: 553.1 km
Apogee: 555.6 km
Inclination: 53.1 °
Period: 95.6 minutes
Semi major axis: 6925 km
RCS: Unknown
Launch date: May 9, 2021
Source: United States (US)
Launch site: AIR FORCE EASTERN TEST RANGE (AFETR)
Your satellite tracking list
Your tracking list is empty




NASA's NSSDC Master Catalog

Two Line Element Set (TLE):
1 48467U 21040AR  23084.92882718  .00041701  00000-0  28016-2 0  9990
2 48467  53.0547 358.8522 0001807 140.8706 219.2414 15.06403924103753
Source of the keplerian elements: AFSPC